Location: Jackson Park
(37.2862°N, 79.9123°W)
Time: 08:33:32
(UTC+00:00)

SR - Pass Details

Date: 15 May 2026
Orbit: 567 x 853 km, 66.7° (Epoch: 11 June)

Event Time Altitude Azimuth Distance (km) Brightness Sun altitude
Rises 21:32:53 0° 330° (NNW) 3,394 ? 31.7°
Reaches altitude 10° 21:35:20 10° 330° (NNW) 2,472 ? 31.2°
Maximum altitude 21:41:06 79° 245° (WSW) 870 ? 30.0°
Drops below altitude 10° 21:46:49 10° 159° (SSE) 2,448 ? 28.9°
Sets 21:49:14 0° 158° (SSE) 3,358 ? 28.4°
